[[[{"header":{"parameterUnit":"kt","parameterCategory":2,"dx":1,"dy":1,"la1":30.253999710083008,"la2":30.299108505249023,"lo1":-89.0895004272461,"lo2":-89.04439544677734,"nx":28,"ny":28,"refTime":"2022-09-28T21:00:00:Z","depth":0,"parameterNumber":1,"parameterNumberName":"U-component_of_WINDS"},"data":[-4.579,-4.596,-4.5941,-4.6126,-4.6139,-4.6262,-4.63,-4.6346,-4.6377,-4.6521,-4.66,-4.6596,-4.662,-4.6708,-4.6792,-4.6789,-4.6828,-4.6901,-4.6885,-4.6571,-4.6527,-4.6484,-4.6444,-4.6909,-4.6909,-4.7215,-4.7218,-4.722,-4.5558,-4.5574,-4.5666,-4.5742,-4.582,-4.5736,-4.579,-4.5861,-4.5974,-4.6013,-4.609,-4.6215,-4.631,-4.6308,-4.6397,-4.6475,-4.6442,-4.6501,-4.6498,-4.6503,-4.6165,-4.6123,-4.6527,-4.6526,-4.6526,-4.6526,-4.6526,-4.6526,-4.5133,-4.5236,-4.527,-4.537,-4.5403,-4.5454,-4.5548,-4.5542,-4.5632,-4.5723,-4.5681,-4.5807,-4.5843,-4.5941,-4.5968,-4.6066,-4.5997,-4.6056,-4.6072,-4.6089,-4.6111,-4.5676,-4.6079,-4.6078,-4.6076,-4.6075,-4.6075,0,-4.4816,-4.4793,-4.488,-4.4962,-4.5033,-4.5094,-4.5147,-4.5205,-4.5148,-4.5225,-4.5334,-4.5393,-4.551,-4.5611,-4.5689,-4.5705,-4.5629,-4.5618,-4.5659,-4.5685,-4.5696,-4.5696,-4.5149,-4.5608,-4.5604,-4.5601,-4.5599,-4.5597,-4.4389,-4.451,-4.4537,-4.4601,-4.4625,-4.4729,-4.4787,-4.4728,-4.4792,-4.4848,-4.4942,-4.504,-4.5118,-4.5295,-4.5288,-4.5376,-4.534,-4.5518,-4.5354,-4.5371,-4.5348,-4.5343,-4.5356,-4.5553,-4.5559,-4.5564,-4.5567,0,-4.415,-4.4117,-4.43,-4.4314,-4.4321,-4.4452,-4.4464,-4.4564,-4.4548,-4.4683,-4.4711,-4.4687,-4.4795,-4.4758,-4.4874,-4.4852,-4.5068,-4.5028,-4.5054,-4.5046,-4.5204,-4.5192,-4.5717,-4.5784,-4.5297,-4.5302,-4.5305,0,-4.3775,-4.3937,-4.3879,-4.3988,-4.4165,-4.4102,-4.4279,-4.4283,-4.4313,-4.442,-4.4325,-4.4427,-4.4364,-4.446,-4.4428,-4.4596,-4.4617,-4.4612,-4.4603,-4.4624,-4.4625,-4.4661,-4.4641,-4.4571,-4.4569,-4.4566,-4.4564,0,-4.3409,-4.3567,-4.3741,-4.3773,-4.3805,-4.3888,-4.3906,-4.394,-4.3998,-4.4066,-4.4103,-4.4187,-4.4234,-4.43,-4.4259,-4.4149,-4.4463,-4.4304,-4.4458,-4.446,-4.4535,-4.4532,-4.5001,-4.4561,-4.456,-4.4559,-4.4558,0,-4.3103,-4.3174,-4.343,-4.3455,-4.35,-4.3614,-4.3693,-4.3782,-4.3825,-4.3812,-4.3866,-4.38,-4.3943,-4.3787,-4.3983,-4.3852,-4.3904,-4.391,-4.3921,-4.3936,-4.3765,-4.404,-4.4487,-4.4535,-4.3943,-4.3938,-4.3934,0,-4.2695,-4.2945,-4.2893,-4.3138,-4.3249,-4.3137,-4.3262,-4.3303,-4.3296,-4.3389,-4.338,-4.3487,-4.3363,-4.3392,-4.3493,-4.3491,-4.3661,-4.3466,-4.3604,-4.361,-4.36,-4.401,-4.4088,-4.4392,-4.3867,-4.3874,-4.3879,0,-4.2375,-4.2414,-4.2462,-4.2495,-4.2539,-4.2632,-4.2775,-4.2867,-4.2932,-4.2988,-4.3109,-4.3256,-4.3169,-4.3218,-4.3175,-4.3282,-4.3543,-4.3175,-4.3176,-4.3246,-4.383,-4.3903,-4.3955,-4.349,-4.3498,-4.3504,-4.3827,0,-4.1926,-4.2047,-4.2172,-4.225,-4.2315,-4.2466,-4.2429,-4.2502,-4.2452,-4.2443,-4.2618,-4.2643,-4.2739,-4.2785,-4.274,-4.2997,-4.2949,-4.2856,-4.2707,-4.2974,-4.308,-4.3123,-4.2552,-4.2547,-4.2543,-4.254,0,0,-4.1546,-4.1719,-4.1658,-4.1796,-4.1848,-4.1731,-4.1896,-4.1933,-4.2011,-4.205,-4.1964,-4.2179,-4.2204,-4.2422,-4.2502,-4.2539,-4.2583,-4.2492,-4.2846,-4.288,-4.2912,-4.3026,-4.3071,-4.2533,-4.2532,-4.253,-4.2529,0,-4.1376,-4.1402,-4.1565,-4.16,-4.165,-4.1631,-4.167,-4.17,-4.1702,-4.1873,-4.1776,-4.1876,-4.205,-4.209,-4.2134,-4.2463,-4.2386,-4.2494,-4.2685,-4.2808,-4.2847,-4.2882,-4.3002,-4.3045,-4.2519,-4.252,-4.252,0,-4.1058,-4.1078,-4.1153,-4.1264,-4.1296,-4.1413,-4.1245,-4.1376,-4.1463,-4.133,-4.1503,-4.1513,-4.1564,-4.1773,-4.1866,-4.1792,-4.221,-4.207,-4.2094,-4.2105,-4.2223,-4.2271,-4.2313,-4.1757,-4.1754,-4.1752,0,0,-4.0916,-4.1027,-4.1033,-4.1225,-4.1252,-4.1227,-4.1285,-4.1243,-4.1291,-4.1311,-4.1323,-4.1373,-4.1472,-4.154,-4.1632,-4.1867,-4.1874,-4.1978,-4.2014,-4.2044,-4.2071,-4.2197,-4.2244,-4.1743,-4.1742,-4.1742,0,0,-4.0849,-4.0862,-4.0805,-4.1023,-4.1071,-4.109,-4.121,-4.114,-4.1219,-4.1198,-4.1135,-4.1145,-4.134,-4.1355,-4.1232,-4.1579,-4.143,-4.1459,-4.1563,-4.1608,-4.1644,-4.1638,-4.1067,0,0,0,0,0,-4.0656,-4.086,-4.0807,-4.0838,-4.098,-4.1119,-4.1136,-4.1088,-4.0984,-4.108,-4.1078,-4.0992,-4.1275,-4.1165,-4.1197,-4.1337,-4.1621,-4.1642,-4.1663,-4.1852,-4.1899,-4.1939,0,0,0,0,0,0,-4.0668,-4.0707,-4.0802,-4.0831,-4.0862,-4.1111,-4.0924,-4.0916,-4.0973,-4.0954,-4.0994,-4.0993,-4.0955,-4.1145,-4.1175,-4.1309,-4.1057,-4.1629,-4.1648,-4.1664,-4.1868,-4.1907,-4.194,0,0,0,0,0,-4.0677,-4.0708,-4.0948,-4.0827,-4.0854,-4.0839,-4.0916,-4.0908,-4.0951,-4.095,-4.0946,-4.091,-4.096,-4.0982,-4.1163,-4.1296,-4.1036,-4.1047,-4.1641,-4.1656,-4.1668,-4.1887,0,0,0,0,0,0,-4.0684,-4.0702,-4.0952,-4.0958,-4.0747,-4.0824,-4.0834,-4.0902,-4.0943,-4.0941,-4.0862,-4.0846,-4.0966,-4.0982,-4.0999,-4.1295,-4.1018,-4.103,-4.1037,-4.1652,-4.1663,-4.1674,0,0,0,0,0,0,-4.0685,-4.0709,-4.0955,-4.0857,-4.0852,-4.081,-4.082,-4.0966,-4.0945,-4.0852,-4.084,-4.0854,-4.094,-4.0983,-4.0996,-4.1227,-4.1005,-4.1016,-4.1024,-4.1029,-4.1661,-4.167,0,0,0,0,0,0,-4.0694,-4.0714,-4.0855,-4.0851,-4.0846,-4.0915,-4.0939,-4.1087,-4.086,-4.0852,-4.0838,-4.0828,-4.0944,-4.0956,-4.0995,-4.1221,-4.1225,-4.1006,-4.1013,-4.1019,-4.1022,0,0,0,0,0,0,0,-4.0701,-4.0579,-4.0914,-4.0846,-4.0841,-4.1019,-4.102,-4.1022,-4.0858,-4.0849,-4.084,-4.0832,-4.0942,-4.0954,-4.0967,-4.1216,0,0,-4.1005,-4.101,0,0,0,0,0,0,0,0,-4.0569,-4.0576,-4.0914,-4.0915,-4.0916,-4.1019,-4.102,-4.1022,-4.0856,-4.0849,-4.0842,-4.0836,-4.0946,-4.0955,-4.0965,0,0,0,0,0,0,0,0,0,0,0,0,0,0,0,-4.0914,-4.0915,0,-4.1019,-4.102,-4.1021,-4.0855,-4.0849,-4.0844,-4.0838,-4.0948,-4.0956,-4.0965,0,0,0,0,0,0,0,0,0,0,0,0,0,0,0,0,0,0,0,0,0,0,0,0,0,0,0,0,0,0,0,0,0,0,0,0,0,0,0,0,0,0,0,0,0,0,0,0,0,0,0,0,0,0,0,0,0,0,0,0,0,0,0,0,0,0,0,0,0]}],[{"header":{"parameterUnit":"kt","parameterCategory":2,"dx":1,"dy":1,"la1":30.253999710083008,"la2":30.299108505249023,"lo1":-89.0895004272461,"lo2":-89.04439544677734,"nx":28,"ny":28,"refTime":"2022-09-28T21:00:00:Z","depth":0,"parameterNumber":2,"parameterNumberName":"V-component_of_WINDS"},"data":[-17.0091,-17.0391,-17.0382,-17.0717,-17.0764,-17.0989,-17.1065,-17.1162,-17.1235,-17.1497,-17.1644,-17.166,-17.1723,-17.1891,-17.2046,-17.2048,-17.2114,-17.2228,-17.221,-17.1715,-17.1645,-17.1579,-17.1509,-17.2243,-17.2244,-17.2723,-17.2728,-17.2731,-16.9727,-16.9779,-16.9955,-17.0118,-17.0266,-17.0151,-17.0267,-17.0398,-17.06,-17.0692,-17.0837,-17.1065,-17.1241,-17.1264,-17.143,-17.1563,-17.1515,-17.1608,-17.1597,-17.1608,-17.1079,-17.1005,-17.1644,-17.1644,-17.1644,-17.1644,-17.1644,-17.1644,-16.9062,-16.9243,-16.9336,-16.9526,-16.9604,-16.9712,-16.9879,-16.9896,-17.0063,-17.024,-17.0191,-17.0417,-17.0502,-17.0693,-17.0752,-17.0924,-17.0817,-17.0913,-17.0937,-17.0962,-17.0992,-17.03,-17.0951,-17.0949,-17.0948,-17.0946,-17.0945,0,-16.8571,-16.8552,-16.8719,-16.8884,-16.9021,-16.9146,-16.9258,-16.9361,-16.9306,-16.9447,-16.9647,-16.9759,-16.9978,-17.016,-17.0311,-17.0351,-17.0239,-17.0226,-17.0292,-17.032,-17.0326,-17.0324,-16.9461,-17.0207,-17.02,-17.0196,-17.0192,-17.019,-16.7898,-16.8111,-16.8202,-16.8321,-16.838,-16.8572,-16.8682,-16.8619,-16.8738,-16.8863,-16.9022,-16.9205,-16.9349,-16.9667,-16.9676,-16.9837,-16.9784,-17.007,-16.9807,-16.9825,-16.9786,-16.9774,-16.9793,-17.0122,-17.013,-17.0138,-17.0143,0,-16.7519,-16.7501,-16.7826,-16.7893,-16.7916,-16.814,-16.8195,-16.837,-16.8364,-16.8603,-16.8655,-16.8646,-16.8841,-16.8804,-16.9017,-16.8991,-16.935,-16.9295,-16.9321,-16.9307,-16.9558,-16.9535,-17.0383,-17.049,-16.973,-16.9737,-16.9743,0,-16.6936,-16.7217,-16.7172,-16.7362,-16.7669,-16.7599,-16.7903,-16.7929,-16.8003,-16.8191,-16.806,-16.8237,-16.8162,-16.8334,-16.8296,-16.8582,-16.8623,-16.8619,-16.8605,-16.8631,-16.8631,-16.8689,-16.8653,-16.8568,-16.8563,-16.856,-16.8556,0,-16.6345,-16.665,-16.6957,-16.7023,-16.7122,-16.7266,-16.7313,-16.7395,-16.7503,-16.7636,-16.7704,-16.7864,-16.7951,-16.8074,-16.8025,-16.7848,-16.8375,-16.8121,-16.837,-16.8372,-16.8488,-16.8482,-16.9244,-16.8551,-16.855,-16.8548,-16.8547,0,-16.587,-16.6013,-16.6463,-16.6541,-16.6623,-16.6824,-16.6979,-16.7143,-16.7238,-16.7228,-16.7332,-16.7239,-16.7489,-16.7239,-16.758,-16.7363,-16.7455,-16.7474,-16.7491,-16.751,-16.7231,-16.7665,-16.8396,-16.847,-16.7528,-16.752,-16.7512,0,-16.5197,-16.5646,-16.5589,-16.6016,-16.6218,-16.6058,-16.628,-16.6369,-16.6375,-16.6542,-16.6545,-16.6736,-16.6543,-16.6597,-16.6771,-16.678,-16.7062,-16.6741,-16.6977,-16.6986,-16.6957,-16.7629,-16.7747,-16.824,-16.7403,-16.7414,-16.7423,0,-16.4672,-16.4793,-16.4874,-16.4945,-16.5055,-16.5223,-16.5478,-16.5653,-16.5768,-16.5883,-16.6092,-16.636,-16.6223,-16.6315,-16.6255,-16.6438,-16.6869,-16.6267,-16.6267,-16.6375,-16.7345,-16.7456,-16.7539,-16.6787,-16.68,-16.6811,-16.7336,0,-16.3957,-16.4179,-16.4396,-16.456,-16.4684,-16.4949,-16.4914,-16.5048,-16.4979,-16.4979,-16.5286,-16.5348,-16.5523,-16.5607,-16.5541,-16.5973,-16.5894,-16.5747,-16.55,-16.5942,-16.6114,-16.6184,-16.5247,-16.5239,-16.5233,-16.5228,0,0,-16.3316,-16.3634,-16.3563,-16.3811,-16.3911,-16.374,-16.4027,-16.4103,-16.4263,-16.4334,-16.4196,-16.4584,-16.464,-16.5015,-16.515,-16.5222,-16.5294,-16.5141,-16.5732,-16.5789,-16.5841,-16.6025,-16.6099,-16.5216,-16.5214,-16.5212,-16.521,0,-16.3048,-16.3117,-16.3404,-16.3481,-16.3593,-16.3579,-16.3649,-16.3728,-16.374,-16.4042,-16.3894,-16.4073,-16.4385,-16.4463,-16.4544,-16.5096,-16.4972,-16.5152,-16.5462,-16.567,-16.5735,-16.5792,-16.5987,-16.6058,-16.5194,-16.5195,-16.5196,0,-16.2523,-16.2585,-16.272,-16.2943,-16.3014,-16.3225,-16.2958,-16.3193,-16.3347,-16.3144,-16.3446,-16.3475,-16.3576,-16.3938,-16.4098,-16.3977,-16.468,-16.4452,-16.449,-16.4507,-16.4706,-16.4784,-16.4854,-16.3937,-16.3933,-16.3929,0,0,-16.2295,-16.2502,-16.2546,-16.2882,-16.2938,-16.2922,-16.303,-16.2973,-16.3071,-16.311,-16.3145,-16.3242,-16.3421,-16.3541,-16.3708,-16.4111,-16.4124,-16.4298,-16.4358,-16.4406,-16.4449,-16.4661,-16.4739,-16.3913,-16.3913,-16.3912,0,0,-16.2185,-16.2251,-16.2165,-16.2552,-16.2653,-16.2715,-16.292,-16.2815,-16.2962,-16.2927,-16.2838,-16.286,-16.3196,-16.323,-16.3022,-16.3618,-16.3375,-16.3423,-16.3584,-16.3659,-16.3717,-16.3701,-16.2754,0,0,0,0,0,-16.1893,-16.2242,-16.2165,-16.2224,-16.2503,-16.2759,-16.2793,-16.273,-16.2559,-16.2723,-16.2734,-16.2595,-16.3099,-16.2913,-16.2971,-16.3203,-16.3708,-16.3745,-16.3779,-16.4081,-16.4159,-16.4225,0,0,0,0,0,0,-16.1915,-16.1989,-16.2155,-16.2234,-16.2295,-16.2745,-16.2442,-16.2434,-16.254,-16.2509,-16.2597,-16.2598,-16.2545,-16.2879,-16.2932,-16.3154,-16.2736,-16.3723,-16.3753,-16.3781,-16.4107,-16.4171,-16.4226,0,0,0,0,0,-16.1933,-16.1992,-16.2458,-16.2228,-16.2282,-16.2282,-16.2428,-16.2419,-16.2499,-16.2519,-16.2515,-16.2442,-16.2554,-16.2594,-16.291,-16.3132,-16.2699,-16.2719,-16.3743,-16.3767,-16.3789,-16.4139,0,0,0,0,0,0,-16.1947,-16.1984,-16.2467,-16.2481,-16.2092,-16.2255,-16.2278,-16.2407,-16.25,-16.25,-16.2357,-16.2332,-16.2564,-16.2593,-16.2625,-16.3128,-16.2668,-16.2689,-16.2701,-16.3761,-16.378,-16.3797,0,0,0,0,0,0,-16.1952,-16.1998,-16.2474,-16.2306,-16.2299,-16.2231,-16.2252,-16.251,-16.2503,-16.2333,-16.2314,-16.2345,-16.2514,-16.2595,-16.2618,-16.3024,-16.2645,-16.2664,-16.2678,-16.2686,-16.3777,-16.3792,0,0,0,0,0,0,-16.197,-16.2009,-16.2301,-16.2297,-16.2291,-16.2441,-16.2456,-16.2745,-16.2364,-16.2331,-16.2327,-16.2311,-16.252,-16.2542,-16.2615,-16.3012,-16.3021,-16.2645,-16.2659,-16.2668,-16.2674,0,0,0,0,0,0,0,-16.1984,-16.174,-16.2386,-16.229,-16.2284,-16.2609,-16.2612,-16.2616,-16.236,-16.2346,-16.2331,-16.2318,-16.2533,-16.2554,-16.2576,-16.3002,0,0,-16.2643,-16.2653,0,0,0,0,0,0,0,0,-16.1722,-16.1735,-16.2386,-16.2389,-16.2392,-16.2609,-16.2612,-16.2615,-16.2358,-16.2346,-16.2334,-16.2323,-16.2538,-16.2556,-16.2573,0,0,0,0,0,0,0,0,0,0,0,0,0,0,0,-16.2387,-16.2389,0,-16.261,-16.2612,-16.2615,-16.2356,-16.2346,-16.2337,-16.2328,-16.2543,-16.2557,-16.2572,0,0,0,0,0,0,0,0,0,0,0,0,0,0,0,0,0,0,0,0,0,0,0,0,0,0,0,0,0,0,0,0,0,0,0,0,0,0,0,0,0,0,0,0,0,0,0,0,0,0,0,0,0,0,0,0,0,0,0,0,0,0,0,0,0,0,0,0,0]}]]]